Regional Weather Roundup
Issued by NWS Northern Indiana

Home | Current Version | Previous Version | Text Only | Print | Product List | Glossary Off
Versions: 1 2 3 4 5 6 7 8 9 10 11 12 13 14 15 16 17 18 19 20 21 22 23 24 25 26 27 28 29 30 31 32 33 34 35 36 37 38 39 40 41 42 43 44 45 46 47 48 49 50

000
ASUS43 KIWX 301110
RWRIWX

KIWX WEATHER ROUNDUP
NATIONAL WEATHER SERVICE NORTHERN INDIANA
700 AM EDT SAT APR 30 2016

NOTE: "FAIR" INDICATES FEW OR NO CLOUDS BELOW 12,000 FEET WITH NO
SIGNIFICANT WEATHER AND/OR OBSTRUCTIONS TO VISIBILITY.

* THESE STATIONS ARE NOT UNDER NWS QUALITY CONTROL. THEY ALSO MAY NOT
  REPORT WEATHER SUCH AS PRECIPITATION OR FOG.

INZ001>027-301200-
NORTHERN INDIANA

CITY           SKY/WX    TMP DP  RH WIND       PRES   REMARKS
GARY*          MOCLDY    48  48 100 E8        30.06S
VALPARAISO     CLOUDY    45  42  89 E12       30.06R FOG
MICHIGAN CITY* CLOUDY    45  43  93 E5        30.07S
LAPORTE*       CLOUDY    46  44  93 E8        30.08R FOG
KNOX*          CLOUDY    45  36  70 E10       30.06S
SOUTH BEND     CLOUDY    45  36  70 E13       30.08R
GOSHEN         CLOUDY    43  36  76 E9        30.08S
MONTICELLO*    CLOUDY    48  43  81 E9        30.04R
LOGANSPORT*    CLOUDY    46  43  87 E8        30.07S FOG
ROCHESTER*     CLOUDY    46  43  87 E13       30.07S
WARSAW*        MOCLDY    43  37  81 E9        30.09R
ANGOLA*        CLEAR     43  28  56 E12       30.09F
FORT WAYNE     CLOUDY    42  38  85 E9        30.10R
HUNTINGTON*    CLOUDY   N/A N/A N/A E7        30.09R
PERU/GRISSOM   CLOUDY    47  45  90 E7        30.05R
MARION*        CLOUDY    46  42  85 E7        30.07S

$$
INZ028>050-301200-
CENTRAL INDIANA

CITY           SKY/WX    TMP DP  RH WIND       PRES   REMARKS
LAFAYETTE      CLOUDY    50  45  83 E10       30.02S
KOKOMO*        MOCLDY    46  41  81 E9        30.06S
MUNCIE*        CLOUDY    49  43  80 E7        30.05S
INDIANAPOLIS   CLOUDY    52  47  83 E10       29.99S

$$
MIZ043>046-050>051-056>058-064>065-071>073-077>080-301200-
SOUTHWEST LOWER MICHIGAN

CITY           SKY/WX    TMP DP  RH WIND       PRES   REMARKS
BATTLE CREEK   CLOUDY    45  39  79 E6        30.11F
BENTON HARBOR  CLOUDY    46  39  76 E8        30.08F
COLDWATER*     PTCLDY    46  39  78 E9        30.09F
HILLSDALE*     CLOUDY    43  41  93 E9        30.10F
HOLLAND        PTCLDY    42  37  82 E6        30.13R
GRAND RAPIDS   CLOUDY    40  36  86 E6        30.14S
KALAMAZOO      CLOUDY    47  38  71 E3        30.10F
STURGIS*       CLOUDY    43  37  79 E10       30.08S
THREE RIVERS*  FAIR      46  38  76 E7        30.10S

$$
OHZ001>008-015>018-024>025-301200-
NORTHWEST OHIO

CITY           SKY/WX    TMP DP  RH WIND       PRES   REMARKS
WAUSEON*         N/A     39  34  81 E5        30.12S HAZE
DEFIANCE       MOCLDY    43  36  76 E6        30.11F
FINDLAY        CLOUDY    41  35  79 E9        30.10S
TOLEDO EXPRESS CLOUDY    37  36  96 CALM      30.12F
TOLEDO METCALF PTCLDY    40  35  83 E3        30.14S
LIMA           PTCLDY    41  38  89 E9        30.09R

$$
AND FOR LAKE MICHIGAN COASTAL AND OPEN LAKE BUOY OBSERVATIONS

STATION/POSITION TEMP    WIND        PRES    VSBY  WAVE
                 AIR SEA DIR/SP/G                  HT/PER
                 (F)     (DEG/KT/KT) (MB)    (MI)  (FT/S)
CALUMET HARBOR    47      70/ 10/ 13 1017.0F
MICHIGAN CITY     46      60/  9/ 10   N/A
BURNS HARBOR      47      70/  8/ 12 1018.3F
SAINT JOSEPH      47      10/  1/  4 1019.6S
SOUTH LAKE BUOY   41 40   70/ 12/ 12 1019.4S         1
4 MI NW BRIDGMAN  47 47                N/A           1/ 4

$$
&&



USA.gov is the U.S. government's official web portal to all federal, state and local government web resources and services.